Location: Dappach
(48.9767°N, 9.6998°E)
Time: 20:55:46
(UTC+00:00)

Okean 1-7 - Pass Details

Date: 23 May 2024
Orbit: 578 x 604 km, 82.5° (Epoch: 23 June)

Event Time Altitude Azimuth Distance (km) Brightness Sun altitude
Exits shadow 01:30:37 21° 240° (WSW) 1,381 4.3 -14.4°
Maximum altitude 01:32:44 32° 288° (WNW) 1,048 4.1 -14.2°
Drops below altitude 10° 01:36:38 10° 352° (N) 1,959 6.4 -13.8°
Sets 01:39:04 0° 3° (N) 2,870 7.6 -13.6°
